SCP
1 2 2 2 2 2 2 1 1 1 1 2 2 2 2 2 2 2 2 1 1 1 1 1 1 1 1 1 1 0 0 1 1 1 1 1 0 0 0 1 1 1 1
1 2 2 2 2 2 2 2 1 1 1 2 2 2 2 2 2 2 1 1 1 1 1 1 1 1 1 1 1 1 0 1 1 1 1 1 0 0 0 1 1 1 1
2 2 3 3 2 3 3 2 1 1 2 2 2 2 2 2 2 2 1 1 1 1 1 1 1 1 1 1 1 1 1 1 1 1 1 1 0 0 0 1 1 1 1
3 3 3 3 2 2 2 2 2 2 2 2 2 2 3 3 2 2 1 1 1 1 1 1 1 1 1 1 1 1 1 1 1 1 1 1 0 0 0 0 1 1 1
3 3 3 2 2 2 2 2 2 2 2 2 2 2 2 3 3 2 1 1 1 1 1 1 1 1 1 1 1 1 1 1 0 1 1 1 1 0 0 0 1 1 1
2 2 2 2 2 2 2 2 2 2 2 2 2 2 2 2 2 2 2 1 1 1 1 1 1 1 1 1 1 1 1 0 0 0 1 1 1 1 0 0 1 1 1
2 2 2 2 2 2 2 2 2 2 2 2 2 2 2 2 2 2 2 2 1 1 1 1 1 1 1 1 1 1 1 1 0 0 0 1 1 1 1 1 1 1 1
3 3 3 3 3 2 2 3 2 2 2 2 2 2 2 2 1 2 2 2 2 2 1 1 1 1 1 1 1 1 1 1 0 0 0 1 1 1 1 1 1 1 1
4 4 4 4 3 3 3 3 3 2 2 2 2 2 1 1 1 1 1 1 2 2 1 1 1 1 1 1 1 1 1 0 0 0 0 1 1 1 1 1 1 1 1
4 4 4 4 3 3 2 2 2 2 2 2 1 1 1 1 1 1 1 1 1 1 1 1 1 1 1 1 1 1 1 0 0 0 0 1 1 1 1 1 1 1 1
4 4 4 4 3 3 2 2 2 2 2 2 1 1 1 1 1 1 0 0 1 1 1 1 1 1 1 1 0 0 0 0 0 0 0 1 1 1 1 1 1 1 1
3 3 3 3 3 3 2 2 2 2 2 2 2 1 1 1 1 1 0 0 0 1 1 1 1 1 1 1 0 0 0 0 0 0 0 1 1 1 1 1 1 1 1
2 2 2 2 2 2 2 2 2 2 2 2 2 2 2 1 1 1 0 0 0 0 0 0 1 1 1 0 0 0 0 0 0 0 0 1 1 1 1 1 2 2 2
2 2 2 2 2 2 2 2 2 2 2 1 2 2 2 2 1 1 0 0 0 0 0 0 0 0 0 0 0 0 0 0 0 0 0 1 1 1 1 1 2 2 2
1 1 2 2 2 2 2 2 2 2 2 1 2 2 2 2 1 1 0 0 0 0 0 0 0 0 0 0 0 0 0 0 0 0 0 0 1 1 1 1 1 2 2
1 1 1 2 2 2 1 2 2 2 2 2 1 2 2 2 1 1 0 0 0 0 0 0 0 0 0 0 0 0 0 0 0 0 0 0 1 1 1 1 1 1 1
1 1 1 1 2 1 1 1 2 2 2 2 2 2 2 2 1 1 0 0 0 0 0 0 0 0 0 0 0 0 0 0 0 0 0 0 1 1 1 1 1 1 1
1 1 1 1 2 1 1 1 1 1 1 2 2 2 2 2 1 1 0 0 0 0 0 0 0 0 0 0 0 0 0 0 0 0 0 0 0 1 1 1 1 1 2
1 1 1 1 1 1 1 1 1 1 1 1 2 2 2 2 1 1 0 0 0 0 0 0 0 0 0 0 0 0 0 0 0 0 0 0 0 1 1 1 1 1 1
1 1 1 1 1 1 1 1 1 1 1 1 2 2 2 2 1 1 0 0 0 0 0 0 0 0 0 0 0 0 0 0 0 0 0 0 0 1 1 1 1 1 1
1 1 1 1 1 0 0 1 1 1 1 1 1 2 2 2 1 1 1 0 0 0 0 0 0 0 0 0 0 0 0 0 1 0 0 0 0 0 1 1 1 1 1
1 1 1 1 0 0 0 1 1 1 0 0 1 1 1 1 1 1 1 0 0 0 0 0 0 0 0 0 0 1 1 1 1 0 0 0 0 0 1 1 1 1 1
1 1 0 0 0 0 0 1 1 1 0 0 0 1 1 1 2 1 1 0 0 0 0 0 0 0 0 0 0 0 0 0 0 0 0 0 0 0 1 1 1 1 1
1 1 0 0 0 0 1 1 1 1 0 0 0 1 1 2 2 2 1 0 0 0 0 0 0 0 0 0 0 0 0 0 0 0 0 0 0 0 0 1 1 1 1
0 0 0 0 1 1 1 1 1 1 0 0 0 1 1 2 3 2 1 0 0 0 0 0 0 0 0 0 0 0 0 0 0 0 0 0 0 0 0 0 1 1 1
0 0 0 1 1 1 1 1 1 1 0 0 0 1 1 2 3 2 1 0 0 0 0 0 0 0 0 0 0 0 0 0 0 0 0 0 0 0 0 0 0 1 1
Wind_Speed
4 6 10 10 9 8 9 9 9 9 9 8 9 9 9 10 10 10 10 9 9 9 9 9 9 9 9 9 9 9 10 10 10 10 9 10 10 10 10 10 9 6 11
7 7 10 10 9 9 9 9 8 8 8 8 8 9 9 9 9 9 9 9 8 9 9 9 8 8 8 8 8 8 9 9 8 8 7 6 7 9 10 9 9 6 10
8 7 9 9 9 8 9 9 8 8 8 8 8 8 9 8 9 8 8 8 8 8 8 8 8 7 7 7 7 7 7 7 7 6 6 3 4 8 9 9 9 10 10
9 7 7 9 9 9 8 9 8 8 8 8 8 8 8 8 8 8 8 8 8 8 8 7 7 7 6 6 6 6 6 6 6 6 3 2 2 7 9 9 9 10 9
7 6 7 9 9 9 8 8 8 8 8 8 8 8 8 8 8 8 7 8 8 8 7 7 7 6 6 6 6 6 6 7 7 5 3 2 2 7 8 8 9 9 9
6 5 6 8 8 8 8 8 8 8 8 8 8 8 8 8 8 8 8 7 7 7 7 7 7 6 5 5 5 5 6 7 6 3 3 2 2 6 7 8 8 8 8
6 4 6 7 7 8 8 8 8 9 8 8 9 8 8 8 8 8 8 7 6 7 7 6 6 5 5 5 5 6 6 6 4 3 2 2 3 6 7 8 8 8 8
6 4 5 7 7 7 7 7 8 8 9 9 9 8 8 8 8 8 8 7 6 6 6 6 5 5 5 5 5 6 6 6 5 4 2 2 4 6 7 7 7 8 8
5 4 3 4 5 6 6 6 7 8 8 9 8 8 8 7 7 8 7 6 6 6 5 5 5 4 4 4 5 6 6 7 3 2 2 2 5 7 7 7 8 8 7
4 4 3 3 3 3 4 6 6 7 8 8 8 8 8 7 7 7 6 5 5 5 5 5 4 4 4 4 4 6 6 6 3 2 1 2 6 7 7 7 7 7 7
2 2 3 3 3 3 3 5 5 6 7 7 7 8 7 4 4 4 4 5 5 5 4 4 4 4 4 4 4 5 5 2 3 2 1 4 6 7 7 7 7 7 6
3 3 3 4 3 3 3 3 2 3 4 4 4 5 3 3 2 4 5 5 5 4 3 3 2 3 3 2 3 4 2 3 2 1 1 5 6 6 6 7 7 6 6
4 4 4 4 4 4 3 3 2 2 2 3 4 4 4 3 2 2 2 2 2 2 1 1 2 1 1 1 1 2 2 2 1 1 1 5 5 6 6 6 6 6 7
4 5 5 5 5 4 4 3 2 2 2 2 3 5 4 3 2 2 1 1 1 1 1 1 1 1 1 2 2 3 3 2 1 1 2 4 5 5 6 6 6 6 6
4 4 5 5 5 5 4 3 3 3 3 3 3 4 4 4 3 3 2 1 1 1 1 1 1 1 2 2 2 3 3 3 2 2 2 5 5 5 5 6 6 5 5
5 5 5 6 5 5 4 4 4 3 3 3 3 4 5 4 3 3 3 2 1 1 1 1 1 1 1 1 2 2 3 2 2 2 2 3 4 5 5 5 5 5 4
6 6 6 6 5 5 5 5 4 3 3 3 3 4 5 4 4 3 3 2 2 2 1 1 2 2 2 2 2 2 2 2 3 2 2 1 2 3 5 5 5 4 4
7 6 6 5 5 5 5 4 3 3 3 3 3 3 4 5 5 4 3 2 2 2 2 2 2 2 2 2 1 1 1 2 3 2 2 2 1 1 2 4 4 4 3
7 6 6 5 6 5 5 4 4 3 3 3 3 3 4 5 5 4 3 3 3 2 1 2 2 2 2 2 1 1 1 2 2 2 2 2 1 1 1 2 3 3 2
5 5 6 6 6 5 4 3 3 3 2 2 3 3 4 4 5 4 3 3 3 3 2 2 2 2 2 2 2 2 1 1 1 1 2 1 1 2 2 1 1 1 2
5 5 6 6 6 5 4 4 4 3 3 2 3 3 4 4 5 4 3 3 3 3 3 3 2 3 2 2 3 2 2 1 1 0 1 1 1 1 2 2 1 1 0
6 6 5 6 7 6 5 4 3 3 3 3 3 3 4 4 5 4 4 4 3 3 3 3 3 2 1 1 2 2 1 2 1 0 1 1 1 1 1 2 2 1 1
7 7 6 6 7 7 6 4 3 2 2 1 2 2 3 4 4 4 5 5 4 4 4 3 4 3 2 0 1 3 3 3 1 1 1 1 1 1 1 1 2 2 2
8 6 7 7 6 6 7 6 7 5 3 3 3 3 3 4 4 4 4 5 5 4 4 4 3 2 4 2 0 0 1 2 2 1 2 1 1 1 2 1 2 2 2
7 6 6 6 6 6 7 7 7 5 4 2 2 3 3 3 4 4 4 3 4 3 4 4 3 3 3 3 2 1 1 1 1 2 2 2 1 2 2 2 2 2 2
5 5 5 6 6 7 7 7 7 7 5 5 4 4 3 2 3 4 4 3 3 3 4 4 4 4 3 2 2 1 2 2 1 2 2 2 2 2 2 2 2 2 2
Wind_Direction
166 169 152 147 142 135 129 125 125 122 119 118 117 118 118 116 114 112 111 111 109 107 105 101 96 94 92 92 93 96 96 92 90 88 83 82 85 88 88 85 81 75 81
158 159 150 149 145 139 135 129 126 126 125 123 120 120 123 124 122 119 118 118 117 113 108 102 99 97 95 93 94 97 99 97 96 90 80 75 84 88 89 88 87 87 84
144 150 151 149 145 142 139 135 134 135 133 129 124 123 126 127 128 125 122 121 118 114 109 106 103 99 98 96 95 98 98 97 94 94 89 73 85 92 93 93 92 92 89
142 146 150 148 148 145 143 142 142 140 139 135 130 127 127 127 128 129 126 124 120 114 110 108 105 102 102 99 97 95 93 91 93 98 90 76 85 95 95 95 95 93 90
134 142 153 146 150 149 147 148 149 146 143 139 136 130 129 127 124 125 124 122 119 116 115 115 113 108 106 101 96 88 86 91 95 89 91 81 83 100 100 97 95 93 90
131 142 152 147 150 152 151 153 154 151 147 142 140 136 133 129 125 119 116 118 119 120 120 120 119 115 114 111 98 87 92 100 96 79 85 92 102 106 105 105 101 97 93
134 138 152 149 150 152 155 155 155 154 151 144 140 139 134 128 124 120 115 114 120 124 123 122 122 119 117 112 98 89 95 101 99 88 89 96 112 111 111 107 107 103 98
137 139 152 154 150 152 154 157 158 157 151 144 139 135 131 128 124 119 116 114 116 122 123 121 119 117 117 108 96 94 96 102 104 96 96 109 117 117 114 111 112 106 100
134 139 146 157 159 154 153 155 157 156 150 143 139 134 128 124 122 119 117 119 119 119 118 120 116 112 113 105 97 92 95 99 97 98 100 102 112 112 110 108 109 104 99
140 144 151 156 154 164 166 151 149 154 148 143 136 130 124 121 122 119 115 117 118 120 121 122 116 104 93 90 98 94 96 93 83 85 82 109 112 112 108 108 109 106 101
155 166 160 163 162 164 167 157 146 150 148 142 137 130 121 121 124 121 116 116 115 114 118 123 122 105 80 75 91 93 88 86 85 77 90 108 115 115 111 108 105 104 102
188 189 178 171 166 161 162 145 144 148 146 143 140 138 129 124 123 120 128 126 122 112 110 120 118 94 69 58 80 87 82 87 78 67 104 111 117 119 117 112 108 106 104
202 190 186 177 167 162 154 145 139 136 138 144 145 141 132 123 122 111 116 119 110 104 84 85 66 63 85 94 90 99 96 86 78 46 82 107 118 122 117 112 110 106 101
218 202 190 180 172 170 160 154 149 152 150 152 153 149 144 138 135 134 132 126 112 91 109 88 102 108 105 110 114 108 104 100 85 64 65 86 102 116 118 116 111 110 104
220 215 194 185 180 173 165 165 156 166 164 162 156 157 156 154 158 153 149 144 149 148 147 126 113 119 114 108 114 116 116 116 104 81 60 77 91 108 112 114 112 111 105
213 218 197 184 184 175 170 170 168 173 166 160 164 168 161 157 158 157 155 160 169 176 175 147 129 123 119 112 106 117 127 124 109 98 77 69 81 100 111 113 114 115 111
202 209 200 185 178 177 173 172 170 173 163 160 167 169 163 155 156 154 158 166 176 165 141 107 98 90 100 99 97 112 123 128 118 110 100 78 69 82 101 108 111 113 110
194 195 195 182 173 179 174 171 164 168 163 161 160 166 165 160 158 154 160 172 164 141 128 124 115 93 80 91 98 98 107 120 122 122 106 98 86 74 90 104 106 109 111
197 190 186 175 172 176 175 168 163 162 163 164 163 169 169 163 161 159 164 168 155 135 128 138 110 109 102 89 98 88 88 115 128 126 126 122 120 113 97 94 95 91 97
188 187 184 173 171 167 160 153 152 151 165 165 168 175 171 167 163 156 155 158 153 141 129 118 112 94 114 124 104 70 53 90 117 134 150 139 136 134 120 104 88 71 81
178 180 190 175 172 159 154 164 166 176 181 180 179 178 175 168 162 155 153 153 154 150 149 136 116 102 81 102 97 63 13 24 90 142 147 137 147 156 140 143 155 130 86
185 187 187 184 176 172 170 169 164 166 176 183 180 178 174 167 165 161 159 160 156 140 135 135 123 111 106 116 125 117 73 350 326 280 177 164 175 183 168 161 168 166 159
193 190 188 189 181 174 162 147 132 119 108 167 175 178 178 164 163 167 165 161 160 152 159 160 151 136 149 159 129 144 153 195 253 301 258 208 196 215 222 205 191 187 181
198 187 184 184 180 173 162 160 158 163 176 200 189 180 177 169 161 159 161 164 165 160 162 172 157 147 147 156 179 30 162 154 154 213 299 283 245 232 239 243 219 208 194
191 180 181 176 178 172 168 168 168 171 179 179 174 168 170 171 165 161 158 162 169 165 165 166 157 154 156 163 168 162 89 66 118 159 221 270 286 254 244 233 221 216 209
183 175 174 174 178 173 172 173 174 174 174 175 182 186 182 174 168 165 159 163 172 167 171 171 164 164 164 163 166 162 161 163 187 172 193 222 251 267 258 246 228 224 221